Location: Newark
(44.3248°N, 23.7839°E)
Time: 05:43:49
(UTC+00:00)

Tiangong - Visible Passes

Search period start: 28 May 2023 00:00
Search period end: 07 June 2023 00:00
Orbit: 377 x 392 km, 41.5° (Epoch: 27 May)

Date Brightness Start Highest point End Pass type
(mag) Time Alt. Az. Time Alt. Az. Time Alt. Az.
02 Jun 0.1 01:26:58 12° S 01:28:21 15° SSE 01:30:13 10° ESE visible
03 Jun -1.0 02:02:08 10° SW 02:04:59 30° SSE 02:07:51 10° E visible
04 Jun -0.6 01:04:40 20° S 01:05:17 22° SSE 01:07:49 10° ESE visible
05 Jun 0.6 00:07:20 10° ESE 00:07:20 10° ESE 00:07:28 10° ESE visible
05 Jun -1.5 01:39:31 14° SW 01:41:56 39° SSE 01:44:57 10° E visible
06 Jun -1.1 00:42:08 30° SSE 00:42:08 30° SSE 00:44:57 10° E visible
06 Jun 0.7 23:44:44 10° ESE 23:44:44 10° ESE 23:44:47 10° ESE visible
